• In Italy
  • List of Countries
  • For 7 days
  • Water Temperature
  • Satellite Maps
  • Weather Map
  • Weather Widgets
  • user-avatar
    Login

    Hourly Weather Gorelovka

    Today, 22 September, Saturday

    Time Temperature Precipitation Wind Pressure Humidity
    00:00 +18°C° 0 mm 2 mps 755 mmHg 78%
    01:00 +17°C° 0 mm 2 mps 755 mmHg 79%
    02:00 +17°C° 0 mm 2 mps 755 mmHg 81%
    03:00 +16°C° 0 mm 2 mps 755 mmHg 84%
    04:00 +16°C° 0 mm 2 mps 754 mmHg 85%
    05:00 +16°C° 0 mm 2 mps 754 mmHg 85%
    06:00 +15°C° 0 mm 2 mps 754 mmHg 86%
    07:00 +17°C° 0 mm 3 mps 754 mmHg 80%
    08:00 +18°C° 0 mm 3 mps 754 mmHg 74%
    09:00 +20°C° 0 mm 3 mps 754 mmHg 69%
    10:00 +21°C° 0 mm 4 mps 754 mmHg 63%
    11:00 +23°C° 0 mm 4 mps 754 mmHg 58%
    12:00 +25°C° 0 mm 4 mps 754 mmHg 53%
    13:00 +26°C° 0 mm 5 mps 753 mmHg 51%
    14:00 +26°C° 0 mm 5 mps 753 mmHg 49%
    15:00 +27°C° 0 mm 5 mps 752 mmHg 47%
    16:00 +26°C° 0 mm 5 mps 752 mmHg 52%
    17:00 +23°C° 0 mm 4 mps 752 mmHg 57%
    18:00 +22°C° 0 mm 3 mps 752 mmHg 62%
    19:00 +21°C° 0 mm 4 mps 751 mmHg 63%
    20:00 +21°C° 0 mm 4 mps 751 mmHg 64%
    21:00 +20°C° 0 mm 4 mps 751 mmHg 65%
    22:00 +20°C° 0 mm 5 mps 751 mmHg 64%
    23:00 +20°C° 0 mm 5 mps 750 mmHg 63%

    Tomorrow, 23 September, Sunday

    Time Temperature Precipitation Wind Pressure Humidity
    00:00 +19°C° 0 mm 5 mps 750 mmHg 62%
    01:00 +19°C° 0 mm 5 mps 749 mmHg 63%
    02:00 +19°C° 0 mm 5 mps 749 mmHg 64%
    03:00 +17°C° 0 mm 5 mps 749 mmHg 66%
    04:00 +17°C° 0 mm 5 mps 748 mmHg 66%
    05:00 +17°C° 0 mm 6 mps 747 mmHg 66%
    06:00 +16°C° 0 mm 6 mps 747 mmHg 67%
    07:00 +17°C° 0 mm 6 mps 746 mmHg 64%
    08:00 +18°C° 0 mm 7 mps 746 mmHg 62%
    09:00 +20°C° 0 mm 8 mps 746 mmHg 60%
    10:00 +20°C° 0 mm 8 mps 746 mmHg 59%
    11:00 +21°C° 0 mm 8 mps 746 mmHg 58%
    12:00 +21°C° 0 mm 7 mps 746 mmHg 57%
    13:00 +17°C° 0.4 mm 7 mps 746 mmHg 64%
    14:00 +15°C° 0.4 mm 7 mps 747 mmHg 72%
    15:00 +11°C° 0.4 mm 6 mps 747 mmHg 80%
    16:00 +10°C° 0.9 mm 6 mps 747 mmHg 82%
    17:00 +10°C° 0.9 mm 5 mps 747 mmHg 84%
    18:00 +10°C° 0.9 mm 4 mps 748 mmHg 85%
    19:00 +10°C° 0.3 mm 4 mps 748 mmHg 86%
    20:00 +11°C° 0.3 mm 3 mps 748 mmHg 86%
    21:00 +11°C° 0.3 mm 3 mps 748 mmHg 87%
    22:00 +10°C° 0 mm 3 mps 748 mmHg 88%
    23:00 +10°C° 0 mm 3 mps 748 mmHg 89%

    Day after tomorrow, 24 September, Monday

    Time Temperature Precipitation Wind Pressure Humidity
    00:00 +10°C° 0 mm 3 mps 749 mmHg 90%
    01:00 +9°C° 0 mm 3 mps 749 mmHg 91%
    02:00 +9°C° 0 mm 3 mps 749 mmHg 92%
    03:00 +9°C° 0 mm 3 mps 749 mmHg 93%
    04:00 +8°C° 0 mm 3 mps 749 mmHg 94%
    05:00 +8°C° 0 mm 3 mps 749 mmHg 94%
    06:00 +8°C° 0 mm 3 mps 749 mmHg 94%
    07:00 +9°C° 0 mm 3 mps 749 mmHg 89%
    08:00 +10°C° 0 mm 3 mps 749 mmHg 84%
    09:00 +12°C° 0 mm 3 mps 749 mmHg 78%
    10:00 +13°C° 0 mm 3 mps 749 mmHg 72%
    11:00 +14°C° 0 mm 4 mps 748 mmHg 66%
    12:00 +15°C° 0 mm 4 mps 748 mmHg 59%
    13:00 +15°C° 0 mm 5 mps 748 mmHg 60%
    14:00 +15°C° 0 mm 5 mps 747 mmHg 60%
    15:00 +15°C° 0 mm 5 mps 747 mmHg 60%
    16:00 +14°C° 0.7 mm 5 mps 746 mmHg 66%
    17:00 +13°C° 0.7 mm 6 mps 745 mmHg 71%
    18:00 +11°C° 0.7 mm 6 mps 744 mmHg 77%
    19:00 +11°C° 2.5 mm 7 mps 743 mmHg 79%
    20:00 +11°C° 2.5 mm 8 mps 742 mmHg 81%
    21:00 +11°C° 2.5 mm 10 mps 741 mmHg 83%
    22:00 +11°C° 0.9 mm 10 mps 740 mmHg 82%
    23:00 +11°C° 0.9 mm 10 mps 739 mmHg 82%

    25 September, Tuesday

    Time Temperature Precipitation Wind Pressure Humidity
    00:00 +12°C° 0.9 mm 11 mps 738 mmHg 82%
    01:00 +11°C° 0.1 mm 10 mps 737 mmHg 81%
    02:00 +9°C° 0.1 mm 10 mps 737 mmHg 79%
    03:00 +8°C° 0.1 mm 10 mps 736 mmHg 77%
    04:00 +8°C° 0 mm 10 mps 736 mmHg 77%
    05:00 +8°C° 0 mm 10 mps 736 mmHg 76%
    06:00 +8°C° 0 mm 10 mps 736 mmHg 76%
    07:00 +8°C° 0 mm 10 mps 737 mmHg 75%
    08:00 +8°C° 0 mm 10 mps 737 mmHg 75%
    09:00 +8°C° 0 mm 10 mps 737 mmHg 74%
    10:00 +8°C° 0.1 mm 10 mps 738 mmHg 73%
    11:00 +8°C° 0.1 mm 10 mps 738 mmHg 73%
    12:00 +8°C° 0.1 mm 10 mps 739 mmHg 72%
    13:00 +8°C° 0.2 mm 10 mps 740 mmHg 73%
    14:00 +7°C° 0.2 mm 10 mps 740 mmHg 74%
    15:00 +7°C° 0.2 mm 10 mps 741 mmHg 74%
    16:00 +7°C° 0.3 mm 10 mps 742 mmHg 76%
    17:00 +6°C° 0.3 mm 9 mps 742 mmHg 77%
    18:00 +6°C° 0.3 mm 9 mps 743 mmHg 78%
    19:00 +6°C° 0.6 mm 9 mps 744 mmHg 79%
    20:00 +6°C° 0.6 mm 8 mps 745 mmHg 80%
    21:00 +5°C° 0.6 mm 8 mps 745 mmHg 81%
    22:00 +5°C° 0.3 mm 8 mps 746 mmHg 80%
    23:00 +5°C° 0.3 mm 7 mps 746 mmHg 80%

    26 September, Wednesday

    Time Temperature Precipitation Wind Pressure Humidity
    00:00 +5°C° 0.3 mm 7 mps 747 mmHg 80%
    01:00 +5°C° 0.1 mm 7 mps 748 mmHg 81%
    02:00 +4°C° 0.1 mm 6 mps 748 mmHg 81%
    03:00 +4°C° 0.1 mm 6 mps 749 mmHg 81%
    04:00 +4°C° 0 mm 6 mps 749 mmHg 82%
    05:00 +3°C° 0 mm 6 mps 750 mmHg 82%
    06:00 +3°C° 0 mm 5 mps 750 mmHg 83%
    07:00 +3°C° 0 mm 6 mps 751 mmHg 79%
    08:00 +4°C° 0 mm 6 mps 752 mmHg 74%
    09:00 +4°C° 0 mm 7 mps 752 mmHg 70%
    10:00 +5°C° 0 mm 6 mps 752 mmHg 64%
    11:00 +7°C° 0 mm 6 mps 752 mmHg 58%
    12:00 +8°C° 0 mm 6 mps 752 mmHg 52%
    13:00 +9°C° 0 mm 7 mps 752 mmHg 53%
    14:00 +9°C° 0 mm 7 mps 752 mmHg 54%
    15:00 +10°C° 0 mm 8 mps 751 mmHg 55%
    16:00 +9°C° 0.5 mm 8 mps 751 mmHg 61%
    17:00 +7°C° 0.5 mm 8 mps 751 mmHg 68%
    18:00 +7°C° 0.5 mm 8 mps 750 mmHg 74%
    19:00 +7°C° 0.4 mm 8 mps 750 mmHg 77%
    20:00 +7°C° 0.4 mm 8 mps 750 mmHg 79%
    21:00 +7°C° 0.4 mm 9 mps 750 mmHg 82%
    22:00 +7°C° 0.1 mm 8 mps 749 mmHg 82%
    23:00 +7°C° 0.1 mm 8 mps 749 mmHg 83%

    27 September, Thursday

    Time Temperature Precipitation Wind Pressure Humidity
    00:00 +8°C° 0.1 mm 7 mps 749 mmHg 84%
    01:00 +8°C° 0.2 mm 7 mps 748 mmHg 84%
    02:00 +8°C° 0.2 mm 7 mps 748 mmHg 85%
    03:00 +8°C° 0.2 mm 7 mps 748 mmHg 86%
    04:00 +7°C° 0.7 mm 8 mps 747 mmHg 86%
    05:00 +6°C° 0.7 mm 8 mps 746 mmHg 86%
    06:00 +6°C° 0.7 mm 9 mps 746 mmHg 86%
    07:00 +6°C° 0.7 mm 9 mps 745 mmHg 85%
    08:00 +6°C° 0.7 mm 9 mps 745 mmHg 84%
    09:00 +6°C° 0.7 mm 10 mps 745 mmHg 83%
    10:00 +6°C° 0.5 mm 9 mps 745 mmHg 83%
    11:00 +7°C° 0.5 mm 9 mps 745 mmHg 83%
    12:00 +7°C° 0.5 mm 9 mps 744 mmHg 83%
    13:00 +8°C° 0.3 mm 9 mps 744 mmHg 82%
    14:00 +8°C° 0.3 mm 9 mps 744 mmHg 81%
    15:00 +10°C° 0.3 mm 9 mps 744 mmHg 81%
    16:00 +10°C° 0.1 mm 8 mps 744 mmHg 81%
    17:00 +10°C° 0.1 mm 8 mps 744 mmHg 82%
    18:00 +10°C° 0.1 mm 7 mps 744 mmHg 83%
    19:00 +10°C° 0.2 mm 8 mps 744 mmHg 83%
    20:00 +10°C° 0.2 mm 8 mps 743 mmHg 84%
    21:00 +11°C° 0.2 mm 8 mps 743 mmHg 84%
    22:00 +11°C° 0.1 mm 8 mps 743 mmHg 85%
    23:00 +10°C° 0.1 mm 8 mps 743 mmHg 85%
    Show more